Ekran

operational
NORAD ID: 10365 Int'l Des: 1977-092 Owner: MSVYAZ Country: SU
HEOCIRCULARGSO

关于 Ekran

正在加载描述...

实时位置

正在加载3D地球...

即将过境

高度历史

Altitude vs Time

uPlot chart will show altitude changes over time

两行轨道根数

1 10365U 77092A 26062.58307782 -.00000318 00000-0 00000-0 0 9999
2 10365 4.5079 276.0781 0042783 16.4389 177.7955 1.00279493133797
Epoch: Mar 3, 2026 • Age: 37 hours

当前状态

高度 35950.3 km
速度 3.06 km/s
星下点 0.44°N, 99.32°E
发射日期 Sep 20, 1977
运行时间 48.4 years
类型 other

技术详情

分类 Payload
质量 2000.00 kg
干质量 1850.00 kg
总质量 2000.00 kg
长度 5.50 m
直径 2.50 m
跨度 9.00 m
形状 Cyl + 2 Pan + Plate
制造商 NPOPM
平台类型 Ekran
阶段状态 In Orbit
所有者/国家 MSVYAZ/SU

大型星座

Loading constellations...